DW7889 Weather Reports


Display with metric or nautical units.
time (UTC)temp
F
wind
direction
speed
MPH
gust
MPH
rain 1hr
in
rain 24hr
in
rain mn
in
humidity
%
barometer
mb
20260902151047 64 11 3.0 6.0 0.00 0.31 0.00 66 1021.2
20260902150528 63 322 2.0 5.0 0.00 0.31 0.00 66 1021.2
20260902150036 63 103 2.0 6.0 0.00 0.31 0.00 67 1021.3
20260902145539 62 38 3.0 7.0 0.00 0.31 0.00 70 1021.3
20260902145042 62 78 2.0 7.0 0.00 0.31 0.00 68 1021.4
20260902144543 61 101 1.0 4.0 0.00 0.31 0.00 68 1021.4
20260902144042 61 217 1.0 3.0 0.00 0.31 0.00 69 1021.5
20260902143528 61 188 1.0 3.0 0.00 0.31 0.00 68 1021.5
20260902143030 61 119 1.0 4.0 0.00 0.31 0.00 69 1021.5
20260902142530 61 90 2.0 5.0 0.00 0.31 0.00 70 1021.6
20260902142032 61 151 1.0 5.0 0.00 0.31 0.00 68 1021.6
20260902141534 62 77 3.0 6.0 0.00 0.31 0.00 68 1021.6
20260902141036 61 32 2.0 5.0 0.00 0.31 0.00 69 1021.5
20260902140534 61 26 3.0 5.0 0.00 0.35 0.00 69 1021.5
20260902140031 61 315 1.0 6.0 0.00 0.35 0.00 70 1021.7
20260902135534 60 256 1.0 7.0 0.00 0.35 0.00 73 1021.7
20260902135033 60 13 4.0 7.0 0.00 0.35 0.00 73 1021.6
20260902134535 60 44 1.0 4.0 0.00 0.35 0.00 74 1021.7
20260902134036 60 344 2.0 5.0 0.00 0.35 0.00 74 1021.7
20260902133539 59 35 2.0 5.0 0.00 0.35 0.00 75 1021.6
20260902133048 59 13 2.0 5.0 0.00 0.35 0.00 76 1021.7
20260902132606 58 357 2.0 5.0 0.00 0.35 0.00 76 1021.8
20260902132050 58 63 2.0 4.0 0.00 0.35 0.00 78 1021.8
20260902131531 58 217 2.0 4.0 0.00 0.35 0.00 77 1021.9
20260902131032 58 41 1.0 4.0 0.00 0.35 0.00 77 1021.9
20260902130534 57 49 1.0 3.0 0.00 0.35 0.00 79 1021.8
20260902130038 56 84 1.0 4.0 0.00 0.35 0.00 79 1021.8
20260902125539 56 72 3.0 7.0 0.00 0.35 0.00 82 1021.8
20260902125040 56 27 3.0 7.0 0.00 0.35 0.00 82 1021.7
20260902124542 55 4 4.0 7.0 0.00 0.35 0.00 82 1021.7
20260902124044 55 21 5.0 8.0 0.00 0.35 0.00 83 1021.7
20260902123546 55 2 5.0 8.0 0.00 0.35 0.00 84 1021.6
20260902123029 55 15 5.0 7.0 0.00 0.35 0.00 84 1021.5
20260902122530 55 15 3.0 7.0 0.00 0.35 0.00 85 1021.6
20260902122037 54 23 4.0 6.0 0.00 0.35 0.00 84 1021.6
20260902121559 54 49 3.0 6.0 0.00 0.35 0.00 85 1021.7
20260902121038 53 359 3.0 7.0 0.00 0.35 0.00 86 1021.7
20260902120538 53 6 4.0 6.0 0.00 0.39 0.00 86 1021.7
20260902120038 53 1 4.0 6.0 0.00 0.39 0.00 87 1021.6
20260902115603 53 18 4.0 7.0 0.00 0.39 0.00 88 1021.5
20260902115044 53 6 5.0 7.0 0.00 0.39 0.00 87 1021.4
20260902114605 53 7 4.0 6.0 0.00 0.39 0.00 89 1021.3
20260902114105 52 23 4.0 6.0 0.00 0.39 0.00 89 1021.3
20260902113545 52 19 4.0 7.0 0.00 0.39 0.00 90 1021.3
20260902113044 51 359 4.0 7.0 0.00 0.39 0.00 90 1021.3
20260902112529 51 8 4.0 7.0 0.00 0.39 0.00 91 1021.2
20260902112031 51 1 5.0 7.0 0.00 0.39 0.00 91 1021.2
20260902111532 50 28 5.0 8.0 0.00 0.39 0.00 91 1021.2
20260902111034 50 26 6.0 8.0 0.00 0.39 0.00 91 1021.2
20260902110536 50 11 5.0 8.0 0.00 0.39 0.00 92 1021.2
20260902110039 49 12 5.0 8.0 0.00 0.39 0.00 93 1021.1
20260902105538 49 12 4.0 6.0 0.00 0.39 0.00 94 1021.1
20260902105101 48 15 3.0 6.0 0.00 0.39 0.00 96 1021.1
20260902104544 48 345 4.0 6.0 0.00 0.39 0.00 95 1021.1
20260902104044 47 316 3.0 6.0 0.00 0.39 0.00 95 1021.1
20260902103542 47 333 5.0 7.0 0.00 0.39 0.00 95 1021.1
20260902103039 47 349 4.0 7.0 0.00 0.39 0.00 94 1021.0
20260902102539 48 9 4.0 6.0 0.00 0.39 0.00 94 1021.1
20260902102042 48 37 4.0 6.0 0.00 0.39 0.00 94 1021.0
20260902101542 48 359 3.0 6.0 0.00 0.39 0.00 94 1020.9
20260902101043 48 6 4.0 6.0 0.00 0.39 0.00 94 1020.9
20260902100541 49 353 3.0 6.0 0.00 0.43 0.00 94 1020.8
20260902095544 49 1 327.0 327.0 0.00 0.00 0.00 94 1019.6
20260902094048 48 360 4.0 5.0 0.00 0.43 0.00 94 1020.4
20260902093546 49 360 3.0 4.0 0.00 0.43 0.00 94 1020.3
20260902093032 49 360 2.0 4.0 0.00 0.43 0.00 94 1020.1
20260902092534 49 1 3.0 5.0 0.00 0.43 0.00 94 1020.0
20260902092053 49 1 3.0 5.0 0.00 0.43 0.00 94 1019.9
20260902091555 49 23 2.0 6.0 0.00 0.43 0.00 94 1019.7
20260902091036 49 18 3.0 6.0 0.00 0.43 0.00 94 1019.7
20260902090556 49 4 3.0 5.0 0.00 0.43 0.00 94 1019.5
20260902090057 49 1 2.0 4.0 0.00 0.43 0.00 94 1019.5
20260902085601 49 25 2.0 3.0 0.00 0.43 0.00 94 1019.5
20260902085043 49 25 2.0 3.0 0.00 0.43 0.00 94 1019.4
20260902084546 49 345 2.0 3.0 0.00 0.43 0.00 94 1019.4
20260902084047 49 8 1.0 5.0 0.00 0.43 0.00 95 1019.4
20260902083527 49 25 3.0 5.0 0.00 0.43 0.00 95 1019.4
20260902083030 49 35 3.0 5.0 0.00 0.43 0.00 95 1019.4
20260902082555 49 7 3.0 5.0 0.00 0.43 0.00 95 1019.5
20260902082036 50 18 3.0 5.0 0.00 0.43 0.00 95 1019.5
20260902081539 50 7 3.0 5.0 0.00 0.43 0.00 96 1019.6
20260902081101 50 359 2.0 5.0 0.00 0.43 0.00 96 1019.6
20260902080541 50 30 2.0 3.0 0.00 0.43 0.00 96 1019.4
20260902080045 50 2 2.0 3.0 0.00 0.43 0.00 96 1019.6
20260902075546 50 2 2.0 3.0 0.00 0.43 0.00 96 1019.6
20260902075048 50 2 2.0 4.0 0.00 0.43 0.00 96 1019.6
20260902074535 49 4 2.0 3.0 0.00 0.43 0.00 96 1019.4
20260902074035 49 4 2.0 3.0 0.00 0.43 0.00 96 1019.5
20260902073559 49 4 2.0 4.0 0.00 0.43 0.00 96 1019.6
20260902073041 50 4 2.0 4.0 0.00 0.43 0.00 96 1019.6
20260902072543 50 38 2.0 2.0 0.00 0.43 0.00 96 1019.5
20260902072044 50 81 1.0 3.0 0.00 0.43 0.00 96 1019.6
20260902071528 50 103 1.0 2.0 0.00 0.43 0.00 96 1019.7
20260902071033 50 120 1.0 2.0 0.00 0.43 0.00 96 1019.7
20260902070533 50 120 0.0 2.0 0.00 0.43 0.00 96 1019.6
20260902070058 50 120 1.0 2.0 0.00 0.43 0.00 96 1019.7
20260902065538 50 120 0.0 1.0 0.00 0.43 0.00 96 1019.7
20260902065041 50 120 0.0 2.0 0.00 0.43 0.00 96 1019.8
20260902064604 50 120 1.0 2.0 0.00 0.43 0.00 96 1019.7
20260902064046 50 120 1.0 3.0 0.00 0.43 0.00 96 1019.7
20260902063528 51 138 2.0 4.0 0.00 0.43 0.00 96 1019.8
20260902063052 51 131 2.0 5.0 0.00 0.43 0.00 96 1019.8
20260902062537 51 143 3.0 5.0 0.00 0.43 0.00 96 1019.7
20260902062037 51 134 3.0 5.0 0.00 0.43 0.00 96 1019.7
20260902061119 51 129 2.0 5.0 0.00 0.43 0.00 96 1019.8
20260902060538 51 147 4.0 5.0 0.00 0.43 0.00 96 1019.8
20260902060044 51 148 2.0 4.0 0.00 0.43 0.00 96 1019.8
20260902055546 51 169 3.0 4.0 0.00 0.43 0.00 96 1019.9
20260902055050 51 191 2.0 5.0 0.00 0.43 0.00 96 1020.0
20260902054531 51 192 3.0 6.0 0.00 0.43 0.00 96 1020.0
20260902054035 51 155 3.0 6.0 0.00 0.43 0.00 96 1020.1
20260902053538 51 119 3.0 5.0 0.00 0.43 0.00 96 1020.2
20260902053039 51 124 2.0 4.0 0.00 0.43 0.00 96 1020.2
20260902052540 51 158 2.0 6.0 0.00 0.43 0.00 96 1020.1
20260902052042 51 150 3.0 6.0 0.00 0.43 0.00 96 1020.2
20260902051543 51 208 2.0 5.0 0.00 0.43 0.00 96 1020.3
20260902051105 51 174 3.0 5.0 0.00 0.43 0.00 96 1020.2
20260902050605 51 187 2.0 5.0 0.00 0.43 0.00 96 1020.3
20260902050106 51 117 3.0 5.0 0.00 0.43 0.00 96 1020.3
20260902045544 51 119 4.0 5.0 0.00 0.43 0.00 96 1020.3
20260902045042 51 134 4.0 8.0 0.00 0.43 0.00 96 1020.5
20260902044540 51 105 4.0 8.0 0.00 0.43 0.00 96 1020.5
20260902044042 52 138 4.0 9.0 0.00 0.43 0.00 96 1020.5
20260902043529 52 106 6.0 9.0 0.00 0.43 0.00 96 1020.4
20260902043030 52 161 6.0 9.0 0.00 0.43 0.00 96 1020.5
20260902042532 52 125 3.0 9.0 0.00 0.43 0.00 96 1020.6
20260902042034 52 122 6.0 9.0 0.00 0.43 0.00 96 1020.6
20260902041540 52 129 6.0 9.0 0.00 0.43 0.00 96 1020.6
20260902041041 52 143 7.0 9.0 0.00 0.43 0.00 96 1020.6
20260902040537 52 142 5.0 7.0 0.00 0.43 0.00 96 1020.7
20260902033044 52 181 4.0 8.0 0.00 0.43 0.00 96 1020.9
20260902032534 52 101 4.0 6.0 0.00 0.43 0.00 96 1020.8
20260902032037 52 134 4.0 6.0 0.00 0.43 0.00 96 1020.7
20260902031559 52 191 3.0 9.0 0.00 0.43 0.00 96 1020.9
20260902031040 52 162 4.0 9.0 0.00 0.43 0.00 96 1020.8
20260902030538 52 185 4.0 8.0 0.00 0.43 0.11 96 1021.0
20260902030043 52 181 4.0 8.0 0.00 0.43 0.11 96 1021.1
20260902025528 52 136 5.0 10.0 0.00 0.43 0.11 96 1020.9
20260902025031 52 137 4.0 10.0 0.00 0.43 0.11 96 1020.9
20260902024535 53 172 6.0 10.0 0.00 0.43 0.11 96 1020.9
20260902024039 53 188 5.0 10.0 0.00 0.43 0.11 96 1021.0
20260902023546 53 179 4.0 9.0 0.00 0.43 0.11 96 1020.8
20260902023047 53 198 4.0 6.0 0.00 0.43 0.11 96 1020.8
20260902022528 53 187 3.0 6.0 0.00 0.43 0.11 96 1020.8
20260902022029 53 174 3.0 6.0 0.00 0.43 0.11 96 1020.8
20260902021532 53 184 3.0 7.0 0.00 0.43 0.11 96 1020.9
20260902021035 53 177 3.0 7.0 0.00 0.43 0.11 96 1020.8
20260902020538 53 170 3.0 7.0 0.00 0.43 0.11 96 1020.8
20260902020104 53 155 4.0 7.0 0.00 0.43 0.11 96 1020.9
20260902015543 53 143 4.0 7.0 0.00 0.43 0.11 97 1020.8
20260902015106 53 162 4.0 6.0 0.00 0.43 0.11 97 1020.8
20260902014528 53 162 4.0 6.0 0.00 0.43 0.11 97 1020.9
20260902014051 53 175 3.0 6.0 0.00 0.43 0.11 97 1020.8
20260902013528 53 164 3.0 8.0 0.00 0.43 0.11 97 1020.8
20260902013030 53 182 3.0 9.0 0.00 0.43 0.11 97 1020.8
20260902012555 53 194 4.0 9.0 0.00 0.43 0.11 97 1020.6
20260902012039 54 179 3.0 9.0 0.00 0.43 0.11 96 1020.6
20260902011542 54 167 6.0 9.0 0.00 0.43 0.11 96 1020.5
20260902011042 54 166 3.0 8.0 0.00 0.43 0.11 97 1020.5
20260902010603 54 175 5.0 8.0 0.00 0.43 0.11 97 1020.6
20260902010044 54 95 4.0 8.0 0.00 0.43 0.11 97 1020.5
20260902005527 54 122 4.0 10.0 0.00 0.43 0.11 97 1020.4
20260902005031 54 192 6.0 10.0 0.00 0.43 0.11 97 1020.5
20260902004531 54 122 6.0 11.0 0.00 0.43 0.11 96 1020.3
20260902004036 54 161 5.0 11.0 0.00 0.43 0.11 97 1020.3
20260902003536 55 222 4.0 7.0 0.00 0.43 0.11 97 1020.3
20260902003040 55 163 3.0 9.0 0.00 0.43 0.11 97 1020.2
20260902002542 54 204 5.0 10.0 0.00 0.43 0.11 97 1020.2
20260902002042 55 166 6.0 12.0 0.00 0.43 0.11 97 1020.1
20260902001541 54 212 5.0 14.0 0.00 0.43 0.11 97 1020.1
20260902001048 55 194 6.0 11.0 0.00 0.43 0.11 97 1020.1
20260902000548 55 186 5.0 11.0 0.00 0.43 0.11 97 1020.0
20260902000029 54 155 7.0 15.0 0.00 0.43 0.11 97 1019.9
20260901235530 55 192 7.0 12.0 0.04 0.43 0.11 97 1019.8
20260901235033 55 202 7.0 12.0 0.04 0.43 0.11 97 1019.8
20260901234532 55 155 5.0 11.0 0.04 0.43 0.11 97 1019.8
20260901234032 55 157 5.0 10.0 0.04 0.43 0.11 97 1019.9
20260901233535 55 183 6.0 10.0 0.04 0.43 0.11 97 1019.9
20260901233037 55 162 5.0 13.0 0.04 0.43 0.11 97 1019.9
20260901232536 55 195 6.0 12.0 0.04 0.43 0.11 96 1019.7
20260901232036 55 172 7.0 11.0 0.04 0.43 0.11 96 1019.6
20260901231539 55 172 5.0 9.0 0.04 0.43 0.11 96 1019.6
20260901231102 55 174 6.0 9.0 0.04 0.43 0.11 96 1019.5
20260901230526 55 172 6.0 9.0 0.04 0.43 0.11 96 1019.4
20260901230031 55 161 5.0 10.0 0.04 0.43 0.11 96 1019.4
20260901225535 55 158 5.0 11.0 0.00 0.39 0.10 96 1019.4
20260901225038 55 174 7.0 12.0 0.00 0.39 0.10 96 1019.3
20260901224600 55 194 7.0 12.0 0.00 0.39 0.10 96 1019.2
20260901224043 55 188 6.0 16.0 0.00 0.39 0.10 96 1019.1
20260901223545 55 188 6.0 16.0 0.04 0.39 0.10 96 1019.0
20260901223045 55 184 6.0 12.0 0.04 0.39 0.10 96 1019.0
20260901222546 55 175 7.0 13.0 0.08 0.39 0.10 96 1019.0
20260901222108 55 187 7.0 13.0 0.08 0.39 0.10 96 1019.0
20260901221547 55 188 8.0 13.0 0.08 0.39 0.10 96 1019.0
20260901221046 55 226 8.0 13.0 0.08 0.39 0.10 96 1018.9
20260901220605 55 199 10.0 13.0 0.08 0.39 0.10 96 1018.8
20260901220045 55 190 7.0 14.0 0.08 0.39 0.10 96 1018.7
20260901215547 55 184 9.0 14.0 0.08 0.39 0.10 96 1018.6
20260901215032 55 212 9.0 14.0 0.08 0.39 0.10 96 1018.6
20260901214533 56 272 5.0 11.0 0.08 0.39 0.10 96 1018.5
20260901214035 55 197 8.0 12.0 0.08 0.39 0.10 96 1018.4
20260901212648 55 195 6.0 14.0 0.00 0.31 0.08 96 1018.1
20260901211542 56 228 6.0 11.0 0.00 0.31 0.08 96 1018.1
20260901211040 56 219 7.0 11.0 0.00 0.31 0.08 95 1018.1
20260901210557 56 213 5.0 10.0 0.00 0.43 0.08 95 1018.0
20260901210040 56 183 6.0 11.0 0.00 0.43 0.08 95 1018.0
20260901205528 56 180 7.0 14.0 0.00 0.43 0.08 95 1018.0
20260901205031 56 167 8.0 14.0 0.00 0.43 0.08 95 1018.0
20260901204552 56 170 5.0 13.0 0.00 0.43 0.08 95 1018.0
20260901204032 56 201 8.0 18.0 0.00 0.43 0.08 94 1017.9
20260901203535 57 176 6.0 18.0 0.00 0.43 0.08 94 1017.9
20260901203037 57 230 7.0 13.0 0.00 0.43 0.08 94 1017.8
20260901202540 57 212 8.0 13.0 0.00 0.43 0.08 94 1017.8
20260901202102 57 218 5.0 13.0 0.00 0.43 0.08 95 1017.7
20260901201543 57 192 7.0 11.0 0.00 0.43 0.08 94 1017.6
20260901201104 57 210 6.0 13.0 0.00 0.43 0.08 94 1017.5
20260901200544 57 203 7.0 13.0 0.00 0.75 0.08 94 1017.5
20260901200046 57 186 9.0 13.0 0.00 0.75 0.08 94 1017.4
20260901195528 57 204 7.0 11.0 0.00 0.75 0.08 94 1017.4
20260901195110 57 220 5.0 15.0 0.00 0.75 0.08 94 1017.3
20260901194529 58 188 10.0 15.0 0.00 0.75 0.08 93 1017.2
20260901194031 58 184 8.0 17.0 0.00 0.75 0.08 92 1017.1
20260901193534 59 190 8.0 17.0 0.00 0.75 0.08 92 1016.9
20260901193034 59 201 10.0 15.0 0.00 0.75 0.08 92 1016.9
20260901192537 58 211 5.0 12.0 0.00 0.75 0.08 92 1016.9
20260901192040 58 221 8.0 12.0 0.00 0.75 0.08 91 1016.8
20260901191542 58 212 5.0 12.0 0.00 0.75 0.08 93 1016.8
20260901191043 58 168 5.0 12.0 0.00 0.75 0.08 93 1016.8
20260901190546 58 173 6.0 14.0 0.00 1.06 0.08 93 1016.7
20260901190044 58 162 7.0 14.0 0.00 1.06 0.08 92 1016.7
20260901185545 59 174 8.0 13.0 0.00 1.06 0.08 92 1016.6
20260901185029 59 158 6.0 10.0 0.00 1.06 0.08 93 1016.6
20260901184531 59 188 6.0 10.0 0.00 1.06 0.08 93 1016.5
20260901184053 59 237 5.0 9.0 0.04 1.06 0.08 94 1016.5
20260901183533 58 205 7.0 11.0 0.04 1.06 0.08 93 1016.4
20260901183034 58 195 7.0 13.0 0.04 1.06 0.08 94 1016.5
20260901182539 58 184 8.0 13.0 0.12 1.06 0.08 94 1016.5
20260901182042 58 187 6.0 13.0 0.16 1.06 0.08 93 1016.3
20260901181606 58 150 6.0 15.0 0.16 1.06 0.08 94 1016.4
20260901181046 58 191 10.0 15.0 0.16 1.06 0.08 95 1016.4
20260901180527 58 195 5.0 14.0 0.16 1.22 0.08 95 1016.3
20260901180028 58 203 8.0 17.0 0.16 1.22 0.08 95 1016.3
20260901175531 58 183 7.0 17.0 0.16 1.22 0.08 95 1016.2
20260901175054 58 178 8.0 15.0 0.16 1.22 0.08 95 1016.2
20260901174535 58 221 10.0 15.0 0.16 1.22 0.08 94 1016.2
20260901174037 58 200 7.0 15.0 0.12 1.18 0.07 94 1016.2
20260901173540 58 183 7.0 15.0 0.12 1.18 0.07 94 1016.2
20260901173045 58 227 8.0 13.0 0.12 1.18 0.07 94 1016.1
20260901172547 58 199 9.0 13.0 0.00 1.06 0.04 94 1016.1
20260901172028 58 181 6.0 12.0 0.00 1.06 0.04 94 1016.0
20260901171535 58 205 5.0 12.0 0.00 1.06 0.04 94 1016.1
20260901171035 58 182 8.0 13.0 0.00 1.06 0.04 94 1016.1
20260901170556 58 192 6.0 13.0 0.00 1.06 0.04 94 1016.1
20260901170039 58 229 6.0 17.0 0.00 1.06 0.04 95 1016.2
20260901165543 58 170 9.0 23.0 0.00 1.06 0.04 93 1016.2
20260901165045 59 202 11.0 23.0 0.00 1.06 0.04 92 1016.1
20260901164546 60 200 11.0 15.0 0.00 1.06 0.04 92 1016.0
20260901164028 60 269 7.0 13.0 0.00 1.06 0.04 93 1015.9
20260901163530 59 205 7.0 18.0 0.04 1.06 0.04 93 1015.9
20260901163032 59 184 8.0 18.0 0.04 1.06 0.04 93 1016.0
20260901162536 58 202 12.0 17.0 0.04 1.06 0.04 93 1016.0
20260901162040 59 188 6.0 20.0 0.04 1.06 0.04 94 1015.9
20260901161540 58 193 11.0 20.0 0.04 1.06 0.04 93 1016.0
20260901161042 58 163 7.0 17.0 0.04 1.06 0.04 94 1016.0
20260901160548 58 235 11.0 17.0 0.04 1.06 0.04 94 1016.0
20260901160033 58 200 13.0 17.0 0.04 1.06 0.04 94 1015.9
20260901155535 58 174 8.0 16.0 0.04 1.06 0.04 94 1016.0
20260901155037 58 200 10.0 24.0 0.04 1.06 0.04 94 1016.0
20260901154558 58 216 12.0 24.0 0.04 1.06 0.04 94 1016.0
20260901154040 58 185 10.0 15.0 0.04 1.06 0.04 94 1015.9
20260901153542 59 178 7.0 13.0 0.00 1.02 0.03 93 1015.9
20260901153044 59 212 8.0 17.0 0.00 1.02 0.03 92 1015.8
20260901152545 59 193 10.0 17.0 0.00 1.02 0.03 93 1015.8
20260901152047 59 200 10.0 13.0 0.00 1.02 0.03 93 1015.9
20260901151549 59 209 6.0 0.0 0.00 0.00 0.03 94 1016.3